This demonstration page uses our WeatherBlox Daily Observations layout. Learn more.

Left ArrowRight Arrow

Hourly Observations for May 20, 2015

Temp ( °F °C ) Dew Point ( °F °C ) Humidity (%) Winds ( mph kmh ) Pressure ( in mb ) Visibility ( mi km ) Precip ( " mm )
12:53 am 00:53 Cloudy 67 19.4 54 12.2 63 63 Calm 29.89 1012 10 16 0.00 0.00
1:53 am 01:53 Cloudy 66 18.9 55 12.8 68 68 Calm 29.88 1012 10 16 0.00 0.00
2:53 am 02:53 Mostly Cloudy 66 18.9 53 11.7 63 63 Calm 29.88 1012 10 16 0.00 0.00
3:53 am 03:53 Mostly Cloudy 62 16.7 53 11.7 73 73 Calm 29.88 1012 10 16 0.00 0.00
4:53 am 04:53 Cloudy 62 16.7 54 12.2 75 75 S 5 7 29.88 1012 10 16 0.00 0.00
5:53 am 05:53 Cloudy 61 16.1 52 11.1 72 72 SSE 5 7 29.88 1012 10 16 0.00 0.00
6:53 am 06:53 Cloudy 60 15.6 51 10.6 72 72 SE 3 6 29.88 1012 10 16 0.00 0.00
7:53 am 07:53 Sunny 61 16.1 51 10.6 70 70 SSE 6 9 29.89 1012 10 16 0.00 0.00
8:53 am 08:53 Mostly Cloudy 65 18.3 51 10.6 61 61 S 3 6 29.88 1012 10 16 0.00 0.00
9:53 am 09:53 Sunny 69 20.6 52 11.1 55 55 SSE 8 13 29.87 1012 10 16 0.00 0.00
10:53 am 10:53 Mostly Cloudy 71 21.7 52 11.1 51 51 VRB 5 7 29.86 1011 10 16 0.00 0.00
11:53 am 11:53 Sunny 76 24.4 50 10 40 40 undefined N/A 29.84 1010 10 16 0.00 0.00
12:53 pm 12:53 Sunny 78 25.6 49 9.4 36 36 WSW 6 9 29.81 1010 10 16 0.00 0.00
1:53 pm 13:53 Sunny 82 27.8 48 8.9 31 31 S 12 19 29.80 1009 10 16 0.00 0.00
2:45 pm 14:45 Mostly Cloudy 80 26.7 48 8.9 33 33 WSW 15 24 29.80 1009 10 16 0.00 0.00
2:53 pm 14:53 Partly Cloudy 80 26.7 48 8.9 33 33 WSW 13 20 29.79 1009 10 16 0.00 0.00
3:53 pm 15:53 Mostly Cloudy 81 27.2 48 8.9 32 32 SSW 13 20 29.79 1009 10 16 0.00 0.00
4:53 pm 16:53 Cloudy with Rain 69 20.6 55 12.8 61 61 VRB 3 6 29.82 1010 10 16 0.01 0.25
5:53 pm 17:53 Mostly Cloudy 69 20.6 57 13.9 66 66 NNE 9 15 29.81 1010 10 16 0.06 1.52
6:53 pm 18:53 Mostly Sunny 67 19.4 58 14.4 73 73 ENE 9 15 29.81 1010 10 16 0.00 0.00
7:53 pm 19:53 Sunny 67 19.4 57 13.9 71 71 N 6 9 29.83 1010 10 16 0.00 0.00
8:53 pm 20:53 Cloudy 65 18.3 58 14.4 78 78 NW 5 7 29.84 1011 10 16 0.00 0.00
9:53 pm 21:53 Mostly Cloudy 65 18.3 56 13.3 73 73 N 3 6 29.85 1011 10 16 0.00 0.00
10:53 pm 22:53 Cloudy 64 17.8 57 13.9 78 78 NNE 5 7 29.87 1011 10 16 0.00 0.00
11:53 pm 23:53 Cloudy 64 17.8 57 13.9 78 78 SSE 3 6 29.87 1012 10 16 0.00 0.03

Powered by AerisWeather